Weather History for Spirit of St Louis, MO

Change the Weather History Date:

Sunday, November 25, 2012

  Actual Average Record
Temperature  
Mean Temperature 46 °F -  
Max Temperature 57 °F 50 °F 72 °F (2006)
Min Temperature 32 °F 31 °F 17 °F (2005)
Degree Days  
Heating Degree Days 20    
Moisture  
Dew Point 25 °F    
Average Humidity 51    
Maximum Humidity 82    
Minimum Humidity 30    
Precipitation  
Precipitation 0.00 in - - ()
Sea Level Pressure  
Sea Level Pressure 29.98 in    
Wind  
Wind Speed 6 mph (WSW)    
Max Wind Speed 12 mph    
Max Gust Speed 20 mph    
Visibility 10 miles    
Events      
Averages and records for this station are not official NWS values.
T = Trace of Precipitation, MM = Missing Value Source: NWS Daily Summary

Daily Weather History Graph

Daily Weather History Graph

Search for Another Location

Airport:

Trip Planner

Search our weather history database for the weather conditions in past years. The results will help you decide how hot, cold, wet, or windy it might be!

Date:

Astronomy

Nov. 25, 2012 Rise Set
Actual Time 6:56 AM CST 4:43 PM CST
Civil Twilight 6:27 AM CST 5:12 PM CST
Nautical Twilight 5:54 AM CST 5:44 PM CST
Astronomical Twilight 5:22 AM CST 6:16 PM CST
Moon 2:59 PM CST (11/25) 4:11 AM CST (11/25)
Length of Visible Light 10h 45m
Length of Day
9h 47m
Waxing Gibbous, 93% of the Moon is Illuminated
Nov 25
Waxing Gibbous
Nov 28
Full
Dec 6
Last Quarter
Dec 13
New
Dec 19
First Quarter

Hourly Weather History & Observations

Time (CST) Temp. Windchill Dew Point Humidity Pressure Visibility Wind Dir Wind Speed Gust Speed Precip Events Conditions
12:54 AM 37.9 °F 35.5 °F 19.0 °F 47% 30.00 in 10.0 mi Variable 3.5 mph - N/A   Clear
1:54 AM 39.0 °F 35.7 °F 19.0 °F 45% 30.00 in 10.0 mi SSW 4.6 mph - N/A   Clear
2:54 AM 39.9 °F 34.5 °F 19.0 °F 43% 29.98 in 10.0 mi SSW 8.1 mph - N/A   Partly Cloudy
3:54 AM 42.1 °F 35.7 °F 19.9 °F 41% 29.95 in 10.0 mi SSW 11.5 mph - N/A   Clear
4:54 AM 41.0 °F 34.3 °F 19.9 °F 43% 29.95 in 10.0 mi SW 11.5 mph 19.6 mph N/A   Clear
5:54 AM 41.0 °F 35.8 °F 19.9 °F 43% 29.95 in 10.0 mi SW 8.1 mph - N/A   Clear
6:54 AM 39.9 °F 34.5 °F 21.0 °F 47% 29.96 in 10.0 mi SW 8.1 mph - N/A   Scattered Clouds
7:54 AM 42.1 °F 36.6 °F 21.9 °F 45% 29.97 in 10.0 mi WSW 9.2 mph - N/A   Clear
8:54 AM 45.0 °F 39.3 °F 23.0 °F 42% 29.98 in 10.0 mi WSW 11.5 mph - N/A   Clear
9:54 AM 48.0 °F - 24.1 °F 39% 29.98 in 10.0 mi WSW 10.4 mph - N/A   Clear
10:54 AM 52.0 °F - 25.0 °F 35% 29.96 in 10.0 mi WSW 10.4 mph - N/A   Clear
11:54 AM 53.1 °F - 26.1 °F 35% 29.94 in 10.0 mi WSW 9.2 mph - N/A   Mostly Cloudy
12:54 PM 54.0 °F - 28.0 °F 37% 29.94 in 10.0 mi NW 8.1 mph - N/A   Clear
1:54 PM 55.9 °F - 27.0 °F 33% 29.93 in 10.0 mi WNW 5.8 mph - N/A   Clear
2:54 PM 57.0 °F - 26.1 °F 30% 29.91 in 10.0 mi Calm Calm - N/A   Scattered Clouds
3:54 PM 55.0 °F - 28.0 °F 35% 29.94 in 10.0 mi NNE 3.5 mph - N/A   Scattered Clouds
4:54 PM 45.0 °F - 30.9 °F 58% 29.96 in 10.0 mi Calm Calm - N/A   Scattered Clouds
5:54 PM 41.0 °F - 30.0 °F 65% 29.98 in 10.0 mi Calm Calm - N/A   Clear
6:54 PM 39.0 °F - 28.9 °F 67% 29.99 in 10.0 mi Calm Calm - N/A   Clear
7:54 PM 36.0 °F - 28.9 °F 76% 30.01 in 10.0 mi Calm Calm - N/A   Clear
8:54 PM 37.0 °F - 28.9 °F 73% 30.04 in 10.0 mi Calm Calm - N/A   Clear
9:54 PM 34.0 °F - 28.0 °F 79% 30.05 in 10.0 mi Calm Calm - N/A   Clear
10:54 PM 34.0 °F - 28.0 °F 79% 30.07 in 10.0 mi Calm Calm - N/A   Clear
11:54 PM 32.0 °F - 27.0 °F 82% 30.08 in 10.0 mi Calm Calm - N/A   Clear